Trinidad, Colorado, United States (81082)
Lat: 37.17N, Lon: 104.5W
Wx Zone: COZ088
Local Info
Past Weather Observations for Monday, August 22, 2016

NOTE: This archive is for the closest National Weather Service station to Trinidad. Information may differ from the station used for current weather conditions.

Click here for Long-term Archive

Time Weather Temperature Dewpoint Humidity Pressure Winds Precip Visibility
23:54
Clear
64°F / 18°C 43°F / 6°C 46% 30.06 in
(1018 mb)
SSW 13.8 mph
(SSW 22 kph)
- 10SM
22:54
Clear
66°F / 19°C 43°F / 6°C 43% 30.04 in
(1017 mb)
SSW 18.4 mph
(SSW 30 kph)
- 10SM
21:54
Clear
66°F / 19°C 43°F / 6°C 43% 30.06 in
(1018 mb)
SSW 13.8 mph
(SSW 22 kph)
- 10SM
20:54
Partly Cloudy
70°F / 21°C 39°F / 4°C 33% 30.09 in
(1019 mb)
NW 10.4 mph
(NW 17 kph)
- 10SM
19:54
Overcast
70°F / 21°C 43°F / 6°C 38% 30.06 in
(1018 mb)
NW 18.4 mph
(NW 30 kph)
- 10SM
19:37
Mostly Cloudy
70°F / 21°C 43°F / 6°C 38% 30.06 in
(1018 mb)
NNW 13.8 mph
(NNW 22 kph)
- 10SM
19:22
Partly Cloudy
Thunder Storms
70°F / 21°C 43°F / 6°C 38% 30.06 in
(1018 mb)
NNW 12.7 mph
(NNW 20 kph)
- 10SM
18:54
Partly Cloudy
75°F / 24°C 45°F / 7°C 34% 30.04 in
(1017 mb)
N 13.8 mph
(N 22 kph)
- 10SM
17:54
Clear
81°F / 27°C 43°F / 6°C 26% 29.98 in
(1015 mb)
SW 9.2 mph
(SW 15 kph)
- 10SM
16:54
Clear
82°F / 28°C 39°F / 4°C 21% 29.98 in
(1015 mb)
SW 9.2 mph
(SW 15 kph)
0.00 in
(0.00 mm)
10SM
15:54
Mostly Cloudy
81°F / 27°C 45°F / 7°C 28% 29.98 in
(1015 mb)
S 4.6 mph
(S 7 kph)
- 10SM
14:54
Partly Cloudy
81°F / 27°C 43°F / 6°C 26% 30.01 in
(1016 mb)
NE 8.1 mph
(NE 13 kph)
- 10SM
14:25
Partly Cloudy
Thunder Storms
81°F / 27°C 46°F / 8°C 30% 30.01 in
(1016 mb)
NE 15 mph
(NE 24 kph)
- 10SM
14:10
Mostly Cloudy
Thunder Storms
79°F / 26°C 43°F / 6°C 28% 30.01 in
(1016 mb)
N 10.4 mph
(N 17 kph)
- 10SM
13:54
Overcast
Thunder Storms
75°F / 24°C 41°F / 5°C 29% 30.01 in
(1016 mb)
N 13.8 mph
(N 22 kph)
- 10SM
13:17
Partly Cloudy
Thunder Storms
84°F / 29°C 39°F / 4°C 20% 30.01 in
(1016 mb)
Variable 3.5 mph
(Variable 6 kph)
- 10SM
12:54
Clear
84°F / 29°C 39°F / 4°C 20% 30.01 in
(1016 mb)
Variable 6.9 mph
(Variable 11 kph)
- 10SM
12:04
Partly Cloudy
84°F / 29°C 43°F / 6°C 23% 30.04 in
(1017 mb)
SW 10.4 mph
(SW 17 kph)
- 10SM
11:54
Partly Cloudy
82°F / 28°C 37°F / 3°C 20% 30.04 in
(1017 mb)
NW 6.9 mph
(NW 11 kph)
- 10SM
10:54
Clear
82°F / 28°C 43°F / 6°C 25% 30.06 in
(1018 mb)
W 15 mph
(W 24 kph)
- 10SM
09:54
Clear
79°F / 26°C 45°F / 7°C 30% 30.06 in
(1018 mb)
SSW 18.4 mph
(SSW 30 kph)
- 10SM
08:54
Clear
75°F / 24°C 45°F / 7°C 34% 30.06 in
(1018 mb)
SSW 19.6 mph
(SSW 32 kph)
- 9SM
07:54
Clear
70°F / 21°C 48°F / 9°C 46% 30.06 in
(1018 mb)
SSW 12.7 mph
(SSW 20 kph)
- 8SM
06:54
Clear
63°F / 17°C 50°F / 10°C 64% 30.06 in
(1018 mb)
SSW 17.3 mph
(SSW 28 kph)
- 10SM
05:54
Clear
63°F / 17°C 48°F / 9°C 59% 30.06 in
(1018 mb)
SSW 9.2 mph
(SSW 15 kph)
- 10SM
04:54
Clear
63°F / 17°C 50°F / 10°C 64% 30.06 in
(1018 mb)
SSW 18.4 mph
(SSW 30 kph)
- 10SM
03:54
Clear
63°F / 17°C 48°F / 9°C 59% 30.06 in
(1018 mb)
SSW 12.7 mph
(SSW 20 kph)
- 10SM
02:54
Clear
63°F / 17°C 48°F / 9°C 59% 30.09 in
(1019 mb)
SW 10.4 mph
(SW 17 kph)
- 10SM
01:54
Clear
63°F / 17°C 52°F / 11°C 68% 30.09 in
(1019 mb)
SSW 11.5 mph
(SSW 19 kph)
- 10SM
00:54
Clear
63°F / 17°C 50°F / 10°C 64% 30.12 in
(1020 mb)
SSW 6.9 mph
(SSW 11 kph)
- 10SM
Time Weather Temperature Dewpoint Humidity Pressure Winds Precip Visibility


Weather for websites

WeatherForYou.com, LLC is not responsible for any damages or problems caused by this service. Current weather conditions are obtained from the closest station including government and personal stations which may have varying degrees of accuracy. Weather forecasts are derived from the NOAA NDFD. Like all things, this site belongs to Jesus Christ... He just trusts us to maintain it. If you have any questions or comments email webmaster@weatherforyou.com

Copyright © 2016, WeatherForYou.com LLC. All rights reserved.